Панагюрски колонии втори Т/Х сензор Measurements

Back to Overview

Timestamp Temperature Humidity
5/4/2026 5:45:12 PM 22,2 C 38.0%
5/4/2026 5:38:09 PM 22,2 C 38.0%
5/4/2026 5:31:05 PM 22,3 C 37.0%
5/4/2026 5:24:02 PM 22,3 C 37.0%
5/4/2026 5:17:00 PM 22,4 C 37.0%
5/4/2026 5:09:56 PM 22,4 C 37.0%
5/4/2026 5:02:53 PM 22,5 C 37.0%
5/4/2026 4:55:51 PM 22,5 C 37.0%
5/4/2026 4:48:47 PM 22,5 C 37.0%
5/4/2026 4:41:44 PM 22,5 C 37.0%
5/4/2026 4:34:41 PM 22,5 C 37.0%
5/4/2026 4:27:37 PM 22,4 C 37.0%
5/4/2026 4:20:33 PM 22,2 C 37.0%
5/4/2026 4:13:29 PM 21,9 C 38.0%
5/4/2026 4:06:27 PM 21,5 C 38.0%
5/4/2026 3:59:24 PM 21,1 C 38.0%
5/4/2026 3:52:20 PM 20,8 C 38.0%
5/4/2026 3:45:16 PM 20,8 C 38.0%
5/4/2026 3:38:13 PM 20,8 C 37.0%
5/4/2026 3:31:10 PM 20,9 C 37.0%
5/4/2026 3:24:06 PM 20,9 C 37.0%
5/4/2026 3:17:03 PM 21,0 C 37.0%
5/4/2026 3:09:59 PM 21,0 C 37.0%
5/4/2026 3:02:55 PM 21,0 C 37.0%
5/4/2026 2:55:51 PM 21,0 C 37.0%
5/4/2026 2:48:48 PM 21,1 C 37.0%
5/4/2026 2:41:43 PM 21,1 C 37.0%
5/4/2026 2:34:41 PM 21,1 C 37.0%
5/4/2026 2:27:39 PM 21,1 C 37.0%
5/4/2026 2:20:37 PM 21,1 C 37.0%
5/4/2026 2:13:35 PM 21,2 C 37.0%
5/4/2026 2:06:33 PM 21,3 C 37.0%
5/4/2026 1:59:29 PM 21,3 C 37.0%
5/4/2026 1:52:28 PM 21,4 C 37.0%
5/4/2026 1:45:25 PM 21,4 C 37.0%
5/4/2026 1:38:23 PM 21,5 C 37.0%
5/4/2026 1:31:20 PM 21,6 C 37.0%
5/4/2026 1:24:17 PM 21,6 C 37.0%
5/4/2026 1:17:14 PM 21,7 C 37.0%
5/4/2026 1:10:12 PM 21,7 C 37.0%
5/4/2026 1:03:10 PM 21,8 C 36.0%
5/4/2026 12:56:06 PM 22,0 C 37.0%
5/4/2026 12:49:02 PM 22,0 C 37.0%
5/4/2026 12:41:58 PM 22,1 C 36.0%
5/4/2026 12:34:55 PM 22,1 C 36.0%
5/4/2026 12:27:51 PM 22,2 C 36.0%
5/4/2026 12:20:47 PM 22,3 C 36.0%
5/4/2026 12:13:44 PM 22,3 C 36.0%
5/4/2026 12:06:40 PM 22,5 C 36.0%
5/4/2026 11:59:38 AM 22,5 C 36.0%
5/4/2026 11:52:35 AM 22,6 C 36.0%
5/4/2026 11:45:32 AM 22,7 C 36.0%
5/4/2026 11:38:29 AM 22,8 C 36.0%
5/4/2026 11:31:26 AM 22,8 C 36.0%
5/4/2026 11:24:22 AM 22,8 C 36.0%
5/4/2026 11:17:19 AM 22,8 C 36.0%
5/4/2026 11:10:18 AM 22,8 C 36.0%
5/4/2026 11:03:16 AM 22,8 C 36.0%
5/4/2026 10:56:15 AM 22,7 C 36.0%
5/4/2026 10:49:13 AM 22,5 C 36.0%
5/4/2026 10:42:11 AM 22,1 C 36.0%
5/4/2026 10:35:08 AM 21,8 C 36.0%
5/4/2026 10:28:06 AM 21,7 C 36.0%
5/4/2026 10:21:04 AM 21,6 C 36.0%
5/4/2026 10:14:01 AM 21,7 C 36.0%
5/4/2026 10:06:56 AM 21,8 C 36.0%
5/4/2026 9:59:53 AM 21,9 C 36.0%
5/4/2026 9:52:49 AM 22,0 C 36.0%
5/4/2026 9:45:47 AM 22,1 C 36.0%
5/4/2026 9:38:45 AM 22,2 C 36.0%
5/4/2026 9:31:43 AM 22,2 C 36.0%
5/4/2026 9:24:38 AM 22,4 C 36.0%
5/4/2026 9:17:37 AM 22,5 C 36.0%
5/4/2026 9:10:34 AM 22,6 C 36.0%
5/4/2026 9:03:31 AM 22,8 C 36.0%
5/4/2026 8:56:28 AM 23,0 C 36.0%
5/4/2026 8:49:23 AM 23,2 C 36.0%
5/4/2026 8:42:20 AM 23,3 C 36.0%
5/4/2026 8:35:16 AM 23,4 C 36.0%
5/4/2026 8:28:13 AM 23,4 C 36.0%
5/4/2026 8:21:11 AM 23,4 C 36.0%
5/4/2026 8:14:07 AM 23,4 C 36.0%
5/4/2026 8:07:03 AM 23,5 C 36.0%
5/4/2026 8:00:00 AM 23,6 C 36.0%
5/4/2026 7:52:58 AM 23,7 C 36.0%
5/4/2026 7:45:56 AM 23,8 C 36.0%
5/4/2026 7:38:54 AM 23,9 C 36.0%
5/4/2026 7:31:52 AM 23,9 C 36.0%
5/4/2026 7:24:48 AM 23,9 C 36.0%
5/4/2026 7:17:46 AM 23,8 C 36.0%
5/4/2026 7:10:42 AM 23,6 C 37.0%
5/4/2026 7:03:38 AM 23,3 C 37.0%
5/4/2026 6:56:35 AM 22,8 C 37.0%
5/4/2026 6:49:33 AM 22,3 C 37.0%
5/4/2026 6:42:30 AM 21,7 C 37.0%
5/4/2026 6:35:26 AM 21,1 C 38.0%
5/4/2026 6:28:24 AM 20,5 C 38.0%
5/4/2026 6:21:22 AM 20,0 C 38.0%
5/4/2026 6:14:18 AM 19,6 C 38.0%
5/4/2026 6:07:17 AM 19,3 C 38.0%
5/4/2026 6:00:15 AM 19,1 C 38.0%
5/4/2026 5:53:11 AM 19,3 C 38.0%
5/4/2026 5:46:09 AM 19,4 C 38.0%
5/4/2026 5:39:07 AM 19,5 C 38.0%
5/4/2026 5:32:04 AM 19,5 C 38.0%
5/4/2026 5:25:00 AM 19,6 C 38.0%
5/4/2026 5:17:57 AM 19,7 C 38.0%
5/4/2026 5:10:52 AM 19,7 C 37.0%
5/4/2026 5:03:56 AM 19,8 C 38.0%
5/4/2026 4:56:46 AM 19,9 C 37.0%
5/4/2026 4:49:43 AM 20,0 C 37.0%
5/4/2026 4:42:41 AM 20,1 C 37.0%
5/4/2026 4:35:37 AM 20,2 C 37.0%
5/4/2026 4:28:35 AM 20,2 C 37.0%
5/4/2026 4:21:33 AM 20,3 C 37.0%
5/4/2026 4:14:31 AM 20,4 C 37.0%
5/4/2026 4:07:27 AM 20,5 C 37.0%
5/4/2026 4:00:24 AM 20,6 C 37.0%
5/4/2026 3:53:20 AM 20,7 C 37.0%
5/4/2026 3:46:16 AM 20,8 C 37.0%
5/4/2026 3:39:14 AM 20,9 C 37.0%
5/4/2026 3:32:11 AM 21,0 C 37.0%
5/4/2026 3:25:08 AM 21,1 C 37.0%
5/4/2026 3:18:06 AM 21,2 C 37.0%
5/4/2026 3:11:03 AM 21,3 C 37.0%
5/4/2026 3:03:59 AM 21,4 C 37.0%
5/4/2026 2:56:57 AM 21,4 C 37.0%
5/4/2026 2:49:55 AM 21,6 C 37.0%
5/4/2026 2:42:52 AM 21,7 C 37.0%
5/4/2026 2:35:48 AM 21,8 C 37.0%
5/4/2026 2:28:44 AM 21,9 C 37.0%
5/4/2026 2:21:41 AM 22,0 C 36.0%
5/4/2026 2:14:39 AM 22,1 C 36.0%
5/4/2026 2:07:37 AM 22,2 C 36.0%
5/4/2026 2:00:34 AM 22,3 C 36.0%
5/4/2026 1:53:30 AM 22,4 C 36.0%
5/4/2026 1:46:28 AM 22,5 C 36.0%
5/4/2026 1:39:25 AM 22,7 C 36.0%
5/4/2026 1:32:22 AM 22,8 C 36.0%
5/4/2026 1:25:18 AM 22,9 C 36.0%
5/4/2026 1:18:16 AM 23,0 C 36.0%
5/4/2026 1:11:14 AM 23,1 C 36.0%
5/4/2026 1:04:11 AM 23,3 C 36.0%
5/4/2026 12:57:08 AM 23,4 C 36.0%
5/4/2026 12:50:07 AM 23,5 C 36.0%
5/4/2026 12:43:03 AM 23,6 C 36.0%
5/4/2026 12:36:00 AM 23,7 C 36.0%
5/4/2026 12:28:57 AM 23,8 C 36.0%
5/4/2026 12:21:55 AM 23,9 C 36.0%
5/4/2026 12:14:54 AM 24,0 C 36.0%
5/4/2026 12:07:50 AM 24,1 C 36.0%
5/4/2026 12:00:48 AM 24,2 C 36.0%